Home > Weather > Colorado Springs > Past weeks

Flag for U.S.A. Weather for the Past 2 Weeks in Colorado Springs, Colorado, U.S.A.

Now
45 °F

Broken clouds.


Feels Like: 39 °F
Forecast: 29 / 54 °F
Wind: 12 mph from East

Location: City Of Colorado Springs Municipal Airport

Current Time: Feb 14, 2016 at 5:29:59 PM

Latest Report: Feb 14, 2016 at 4:54 PM


Visibility: 10 mi

Pressure: 29.94 "Hg (23.95 "Hg at 1831m altitude)

Humidity: 42%

Dew point: 23 °F

Location of Colorado SpringsLocation

Historic Weather in Colorado Springs — Graph

°F

Colorado Springs Temperature Yesterday

Maximum temperature yesterday: 67 °F (at 1:54 PM)
Minimum temperature yesterday: 28 °F (at 6:54 AM)
Average temperature yesterday: 47 °F

High & Low Weather Summary for the Past Weeks

 TemperatureHumidityPressure
High68 °F (Jan 30, 3:54 PM)93% (Jan 31, 1:54 AM)30.58 "Hg (Jan 31, 1:54 AM)
Low2 °F (Feb 3, 7:54 AM)7% (Feb 10, 11:54 AM)29.37 "Hg (Jan 30, 3:54 PM)
Average31 °F57%30.18 "Hg
* Reported Jan 30 3:54 PM — Feb 14 3:54 PM, Colorado Springs, Weather by CustomWeather, © 2016

Note: Actual official high and low records may vary slightly from our data, if they occured in-between our weather recording intervals... More about our weather records

Advertising

Colorado Springs Weather History for the Previous 24 Hours

 ConditionsComfort  
Time TempWeatherWind HumidityBarometerVisibility
3:54 PM
Sun, Feb 14
51 °FBroken clouds.21 mph22%29.87 "Hg10 mi
2:54 PM48 °FBroken clouds.3 mph39%29.89 "Hg10 mi
1:54 PM50 °FPartly sunny.3 mph33%29.86 "Hg10 mi
12:54 PM47 °FBroken clouds.3 mph39%29.87 "Hg10 mi
11:54 AM39 °FBroken clouds.No wind53%29.91 "Hg10 mi
10:54 AM39 °FBroken clouds.13 mph53%29.89 "Hg10 mi
9:54 AM34 °FBroken clouds.6 mph70%29.93 "Hg10 mi
8:54 AM31 °FBroken clouds.No wind79%29.96 "Hg10 mi
7:54 AM29 °FBroken clouds.9 mph82%29.98 "Hg10 mi
6:54 AM29 °FBroken clouds.9 mph82%29.99 "Hg10 mi
5:54 AM28 °FPassing clouds.10 mph85%30.00 "Hg10 mi
4:54 AM29 °FPassing clouds.15 mph82%29.98 "Hg10 mi
3:54 AM30 °FPassing clouds.12 mph66%29.98 "Hg10 mi
2:54 AM34 °FClear.8 mph54%29.94 "Hg10 mi
1:54 AM34 °FPassing clouds.13 mph56%29.95 "Hg10 mi
12:54 AM37 °FPassing clouds.9 mph46%29.97 "Hg10 mi
11:54 PM
Sat, Feb 13
41 °FPassing clouds.17 mph36%29.95 "Hg10 mi
10:54 PM48 °FPassing clouds.13 mph19%29.92 "Hg10 mi
9:54 PM52 °FPassing clouds.16 mph15%29.91 "Hg10 mi
8:54 PM53 °FPassing clouds.28 mph15%29.93 "Hg10 mi
7:54 PM55 °FPassing clouds.26 mph13%29.91 "Hg10 mi
6:54 PM54 °FPassing clouds.16 mph16%30.03 "Hg10 mi
5:54 PM57 °FPartly cloudy.13 mph13%30.01 "Hg10 mi
Weather by CustomWeather, © 2016

See weather overviewHow to use our weather pages